Location: Flitcham
(52.8000°N, 0.5667°E)
Time: 14:58:53
(UTC+00:00)

Cosmos 1238 Rocket - Pass Details

Date: 15 May 2026
Orbit: 351 x 697 km, 82.9° (Epoch: 10 June)

Event Time Altitude Azimuth Distance (km) Brightness Sun altitude
Exits shadow 23:14:35 23° 116° (ESE) 1,235 4.3 -17.6°
Maximum altitude 23:15:52 27° 86° (E) 1,132 4.3 -17.7°
Drops below altitude 10° 23:19:35 10° 29° (NNE) 1,997 6.4 -17.8°
Sets 23:22:11 0° 18° (NNE) 2,965 7.7 -17.8°
